星链-2538 (STARLINK-2538 )

导读

STARLINK-2538是美国SpaceX公司星链星座的V1.5批次卫星,于2021年4月29日由猎鹰9号火箭发射。它运行在近地轨道,重量约295公斤,配备氪离子霍尔推进器,搭载Ku/Ka波段相控阵天线,部分批次配备激光星间链路,旨在为全球偏远地区提供高速低延迟宽带互联网服务,设计寿命约5年,退役后会再入大气层完全烧毁。

基本信息
目录编号:
48300
目录名称:
STARLINK-2538
国际标识:
2021-036AA
轨道中心:
EARTH
卫星名称:
星链-2538
卫星全名:
星链-2538 (STARLINK-2538 )
卫星状态:
在轨 (已飞行1954 天)
发射日期:
2021-04-29 UTC
国别 :
美国 (US)
星等 :
--
轨道信息
数据来源 国际轨道数据
星历时间: 2026-09-04T14:26:21+0800
5小时前
查看轨道信息
半长轴: 6848.872km
偏心率: 0.0001215
轨道倾角: 53.159°
近地点辐角 97.450°
升交点赤经 337.118°
平近点角 262.664°
近地点: 469.902km
远地点: 471.568km
周期: 94.013分钟
每日圈数: 15.317017
详细信息
固有亮度:
5
最大亮度:
2.5
卫星平台:
Starlink V1.0
覆盖范围:
全球
运营商:
太空探索技术公司
运营商所在国:
美国
制造商(研发单位):
太空探索技术公司
制造商所在国:
美国
使用方式:
暂无
卫星简介
星链(Starlink)计划是由太空探索技术公司(SpaceX)提出的一个巨型低轨卫星互联网星座项目,计划在2019年至2024年间在太空搭建由约1.2万颗卫星组成的“星链”网络,其中1584颗将部署在地球上空550千米处的近地轨道,并从2020年开始工作。该卫星仍在工作。
2D轨道图
3D轨道图
轨道高度分析图
轨道倾角分析图
轨道综合分析图
查看轨道综合分析图
交会数据列表
事件ID 空间交会对象 最接近时刻(TCA) 交会距离 交会风险概率(CRP) 交会风险指数(CRI) 操作
CDM_260905-131404-830006-469821
2026-09-05T
13:14:37+0000
1.522 km
极远距离
5.268838E-6 低风险 0.49
CDM_260904-170404-830006-486021
2026-09-04T
17:04:31+0000
2.579 km
极远距离
1.558141E-6 低风险 0.39
CDM_260905-210804-830006-810121
2026-09-05T
21:08:07+0000
2.602 km
极远距离
1.530019E-6 低风险 0.39
CDM_260906-143604-830006-866221
2026-09-06T
14:36:52+0000
2.919 km
极远距离
1.364284E-6 低风险 0.38
CDM_260906-054104-830006-471221
2026-09-06T
05:41:26+0000
2.996 km
极远距离
1.134559E-6 低风险 0.36
CDM_260904-184704-830005-322421
2026-09-04T
18:47:20+0000
2.589 km
极远距离
1.055713E-6 低风险 0.35
CDM_260906-165704-830006-971021
2026-09-06T
16:57:06+0000
2.916 km
极远距离
9.330242E-7 极低风险 0.34